[[{"header":{"parameterUnit":"m.s-1","parameterCategory":1,"la1":30.2991,"la2":30.254,"lo1":-89.0895,"lo2":-89.0444,"dy":0.0017,"dx":0.0017,"nx":28,"ny":28,"refTime":"2023-09-23T09:00:00:Z","depth":0,"parameterNumber":2,"parameterNumberName":"U-component_of_WINDS"},"data":[0,0,0,0,0,0,0,0,0,0,0,0,0,0,0,0,0,0,0,0,0,0,0,0,0,0,0,0,0,0,0,0,0,0,0,0,0,0,0,0,0,0,0,0,0,0,0,0,0,0,0,0,0,0,0,0,0,0,-0.6017,-0.6017,0,-0.5962,-0.5961,-0.5961,-0.5917,-0.5916,-0.5916,-0.5915,-0.5856,-0.5855,-0.5854,0,0,0,0,0,0,0,0,0,0,0,0,0,-0.6084,-0.6083,-0.6017,-0.6017,-0.6016,-0.5962,-0.5961,-0.5961,-0.5917,-0.5916,-0.5916,-0.5915,-0.5857,-0.5855,-0.5854,0,0,0,0,0,0,0,0,0,0,0,0,0,-0.6044,-0.6083,-0.6018,-0.5988,-0.5984,-0.5962,-0.5961,-0.596,-0.5917,-0.5916,-0.5915,-0.5915,-0.5857,-0.5855,-0.5854,-0.5856,0,0,-0.5848,-0.5848,0,0,0,0,0,0,0,0,-0.6047,-0.6042,-0.5993,-0.599,-0.5986,-0.5946,-0.5963,-0.5925,-0.5917,-0.5942,-0.5915,-0.5915,-0.5886,-0.5882,-0.5873,-0.5853,-0.5851,-0.5848,-0.5847,-0.5846,-0.5846,0,0,0,0,0,0,0,-0.605,-0.6044,-0.5995,-0.5992,-0.5988,-0.5977,-0.597,-0.5956,-0.5919,-0.594,-0.5937,-0.5931,-0.5884,-0.5875,-0.5871,-0.585,-0.5848,-0.5847,-0.5846,-0.5845,-0.5831,-0.5832,0,0,0,0,0,0,-0.6057,-0.6047,-0.5997,-0.5994,-0.6015,-0.5976,-0.5969,-0.5959,-0.5919,-0.5912,-0.5932,-0.5929,-0.5878,-0.5873,-0.5869,-0.5871,-0.5846,-0.5845,-0.5844,-0.5831,-0.5831,-0.5832,0,0,0,0,0,0,-0.6059,-0.6053,-0.5999,-0.6019,-0.6012,-0.5976,-0.5965,-0.5958,-0.5949,-0.5912,-0.5905,-0.5929,-0.5877,-0.5872,-0.586,-0.5868,-0.5844,-0.5842,-0.583,-0.5831,-0.5832,-0.5873,0,0,0,0,0,0,-0.6061,-0.6054,-0.6055,-0.602,-0.6011,-0.5992,-0.5965,-0.5958,-0.5946,-0.5943,-0.5908,-0.5901,-0.5877,-0.5863,-0.5859,-0.5865,-0.5841,-0.5829,-0.583,-0.5831,-0.5871,-0.5876,-0.588,0,0,0,0,0,-0.6063,-0.6068,-0.6055,-0.6049,-0.6011,-0.5992,-0.5987,-0.5959,-0.5947,-0.5948,-0.5924,-0.5903,-0.5868,-0.5862,-0.5857,-0.5863,-0.5828,-0.583,-0.5831,-0.5869,-0.5875,-0.5879,0,0,0,0,0,0,-0.6103,-0.6062,-0.6048,-0.6041,-0.6021,-0.5985,-0.5984,-0.5966,-0.5948,-0.5945,-0.591,-0.5902,-0.5895,-0.5878,-0.5872,-0.5864,-0.5845,-0.5846,-0.5876,-0.5881,-0.5885,-0.589,-0.5839,0,0,0,0,0,-0.6111,-0.61,-0.6065,-0.6062,-0.6053,-0.6021,-0.6011,-0.5992,-0.5969,-0.596,-0.5936,-0.5914,-0.5898,-0.5888,-0.5872,-0.5868,-0.5861,-0.587,-0.5874,-0.5878,-0.5879,-0.5878,-0.5882,-0.5837,-0.5837,-0.5837,0,0,-0.6127,-0.6104,-0.6098,-0.6069,-0.6051,-0.6041,-0.6014,-0.6003,-0.5995,-0.5958,-0.5946,-0.5928,-0.5901,-0.5895,-0.589,-0.588,-0.589,-0.588,-0.5883,-0.5882,-0.588,-0.5884,-0.5888,-0.5838,-0.5838,-0.5838,0,0,-0.6152,-0.6132,-0.6129,-0.6112,-0.6086,-0.6065,-0.6064,-0.6031,-0.6018,-0.6007,-0.598,-0.5969,-0.5942,-0.5925,-0.5913,-0.5933,-0.5913,-0.5929,-0.5951,-0.595,-0.5954,-0.5956,-0.5965,-0.5968,-0.593,-0.593,-0.593,0,-0.6175,-0.6158,-0.6129,-0.6121,-0.611,-0.6077,-0.6074,-0.6059,-0.6028,-0.6021,-0.6009,-0.5977,-0.5957,-0.5946,-0.5952,-0.5942,-0.5941,-0.5933,-0.5955,-0.5958,-0.596,-0.5968,-0.5971,-0.5932,-0.5932,-0.5932,-0.5931,0,-0.6189,-0.6178,-0.6178,-0.6151,-0.614,-0.6134,-0.6104,-0.6096,-0.6078,-0.6058,-0.6047,-0.6022,-0.6001,-0.5997,-0.5978,-0.5984,-0.5979,-0.5962,-0.5942,-0.5967,-0.5974,-0.5977,-0.5935,-0.5934,-0.5934,-0.5933,0,0,-0.6236,-0.6195,-0.6195,-0.6183,-0.6153,-0.6143,-0.6137,-0.6117,-0.6111,-0.6091,-0.6085,-0.6065,-0.605,-0.6036,-0.6015,-0.6014,-0.6034,-0.5998,-0.5997,-0.6007,-0.6041,-0.6055,-0.6059,-0.6021,-0.6021,-0.6021,-0.6044,0,-0.6256,-0.6243,-0.6218,-0.6212,-0.6203,-0.6173,-0.6167,-0.6148,-0.6129,-0.6118,-0.6097,-0.6084,-0.6065,-0.6057,-0.6054,-0.6032,-0.6041,-0.603,-0.6015,-0.6015,-0.6023,-0.6062,-0.6076,-0.6098,-0.6046,-0.6047,-0.6047,0,-0.6278,-0.6262,-0.6256,-0.6228,-0.6223,-0.6218,-0.62,-0.6189,-0.6167,-0.6154,-0.614,-0.6118,-0.6109,-0.6091,-0.608,-0.6073,-0.6065,-0.6054,-0.6054,-0.6052,-0.6033,-0.6062,-0.6104,-0.6108,-0.6051,-0.605,-0.605,0,-0.6315,-0.6292,-0.6286,-0.6276,-0.6243,-0.624,-0.6226,-0.6204,-0.6194,-0.6177,-0.6171,-0.6153,-0.6144,-0.613,-0.6104,-0.6093,-0.6096,-0.6075,-0.6085,-0.6086,-0.6087,-0.6088,-0.613,-0.6081,-0.6081,-0.6081,-0.6081,0,-0.6341,-0.6339,-0.6302,-0.6298,-0.6296,-0.6267,-0.6264,-0.6247,-0.6228,-0.6221,-0.6193,-0.6187,-0.6153,-0.6142,-0.6122,-0.6116,-0.6112,-0.6101,-0.6096,-0.6104,-0.6106,-0.6099,-0.6097,-0.6082,-0.6082,-0.6082,-0.6081,0,-0.6382,-0.6357,-0.6348,-0.6318,-0.6311,-0.631,-0.6284,-0.628,-0.626,-0.6252,-0.6248,-0.6218,-0.6205,-0.6177,-0.6156,-0.6142,-0.6142,-0.6132,-0.615,-0.6147,-0.6159,-0.6159,-0.6199,-0.6204,-0.6151,-0.6152,-0.6152,0,-0.64,-0.6398,-0.6369,-0.6362,-0.635,-0.634,-0.633,-0.6302,-0.6293,-0.6269,-0.6268,-0.6253,-0.624,-0.622,-0.6196,-0.618,-0.617,-0.6186,-0.6167,-0.6177,-0.6172,-0.6173,-0.6173,-0.619,-0.619,-0.6191,-0.6191,0,-0.6437,-0.6425,-0.6413,-0.6397,-0.6387,-0.6373,-0.6358,-0.6354,-0.6322,-0.6314,-0.6301,-0.6291,-0.627,-0.6256,-0.6237,-0.6222,-0.6202,-0.6198,-0.6199,-0.6208,-0.6219,-0.6215,-0.6162,-0.6197,-0.6196,-0.6196,-0.6195,-0.6195,-0.6468,-0.6465,-0.6445,-0.6433,-0.6418,-0.6405,-0.64,-0.6381,-0.637,-0.6352,-0.6335,-0.6324,-0.6304,-0.6276,-0.6263,-0.6254,-0.6244,-0.6246,-0.6247,-0.6248,-0.6252,-0.622,-0.625,-0.625,-0.625,-0.625,-0.625,0,-0.6504,-0.649,-0.6479,-0.6459,-0.645,-0.6432,-0.6415,-0.6408,-0.6399,-0.6382,-0.637,-0.6356,-0.6342,-0.6318,-0.6303,-0.63,-0.6291,-0.6297,-0.6297,-0.6295,-0.6261,-0.6262,-0.6305,-0.6305,-0.6305,-0.6305,-0.6305,-0.6305,-0.6522,-0.6517,-0.6503,-0.6492,-0.6477,-0.6467,-0.6459,-0.6447,-0.6433,-0.6419,-0.6408,-0.6393,-0.6373,-0.6356,-0.6343,-0.6336,-0.6332,-0.6342,-0.6333,-0.6302,-0.6297,-0.6292,-0.6292,-0.6341,-0.6342,-0.6367,-0.6367,-0.6368]},{"header":{"parameterUnit":"m.s-1","parameterCategory":1,"la1":30.2991,"la2":30.254,"lo1":-89.0895,"lo2":-89.0444,"dy":0.0017,"dx":0.0017,"nx":28,"ny":28,"refTime":"2023-09-23T09:00:00:Z","depth":0,"parameterNumber":3,"parameterNumberName":"V-component_of_WINDS"},"data":[0,0,0,0,0,0,0,0,0,0,0,0,0,0,0,0,0,0,0,0,0,0,0,0,0,0,0,0,0,0,0,0,0,0,0,0,0,0,0,0,0,0,0,0,0,0,0,0,0,0,0,0,0,0,0,0,0,0,2.6502,2.6501,0,2.641,2.6409,2.6408,2.6415,2.6416,2.6418,2.6419,2.6314,2.6311,2.6306,0,0,0,0,0,0,0,0,0,0,0,0,0,2.6676,2.6673,2.6502,2.6501,2.65,2.641,2.6409,2.6407,2.6415,2.6416,2.6418,2.642,2.6316,2.6311,2.6306,0,0,0,0,0,0,0,0,0,0,0,0,0,2.6593,2.6672,2.6503,2.6493,2.6491,2.641,2.6409,2.6407,2.6414,2.6416,2.6418,2.642,2.6317,2.6311,2.6305,2.6225,0,0,2.6287,2.6284,0,0,0,0,0,0,0,0,2.6598,2.6587,2.6496,2.6494,2.6492,2.6426,2.6432,2.6346,2.6414,2.6443,2.6419,2.6422,2.6349,2.6341,2.6318,2.622,2.6215,2.6286,2.6282,2.628,2.6278,0,0,0,0,0,0,0,2.6604,2.6591,2.6465,2.6494,2.6492,2.649,2.6481,2.6415,2.6385,2.6441,2.6441,2.6431,2.6348,2.6324,2.6316,2.6214,2.6286,2.6281,2.6277,2.6275,2.6042,2.604,0,0,0,0,0,0,2.6613,2.6596,2.6468,2.6463,2.6551,2.6485,2.6475,2.6445,2.6386,2.6379,2.6429,2.6431,2.6334,2.6323,2.6312,2.6212,2.628,2.6274,2.627,2.6045,2.6042,2.6039,0,0,0,0,0,0,2.6617,2.6602,2.6472,2.6529,2.6513,2.648,2.6446,2.6442,2.6418,2.6377,2.6371,2.641,2.6335,2.6321,2.6247,2.6209,2.6271,2.6266,2.6048,2.6044,2.604,2.6012,0,0,0,0,0,0,2.6622,2.6603,2.6574,2.6529,2.651,2.6411,2.6444,2.6439,2.6408,2.6411,2.6358,2.6351,2.6336,2.6256,2.6241,2.6201,2.6261,2.6051,2.6046,2.6042,2.6016,2.6008,2.6001,0,0,0,0,0,2.6628,2.6568,2.6573,2.6557,2.6474,2.6409,2.6397,2.6384,2.6405,2.6374,2.6348,2.6353,2.6216,2.6248,2.6231,2.6189,2.6053,2.6047,2.6042,2.602,2.601,2.6001,0,0,0,0,0,0,2.6607,2.6562,2.6567,2.6491,2.6454,2.641,2.6371,2.6374,2.6327,2.6331,2.6313,2.6301,2.6225,2.62,2.6237,2.6107,2.6137,2.6128,2.6126,2.6116,2.6108,2.6114,2.6256,0,0,0,0,0,2.6594,2.6548,2.6511,2.6447,2.6429,2.6403,2.6374,2.6367,2.6327,2.631,2.6278,2.6236,2.6183,2.6149,2.6098,2.6014,2.6,2.5976,2.5969,2.5963,2.5954,2.5904,2.5892,2.6021,2.6021,2.6021,0,0,2.6565,2.6536,2.6507,2.6442,2.6413,2.6362,2.639,2.6335,2.6297,2.6301,2.6229,2.6204,2.6156,2.6076,2.6039,2.6052,2.5916,2.5956,2.5951,2.5945,2.5897,2.5885,2.5875,2.6017,2.6018,2.6018,0,0,2.6488,2.6462,2.6406,2.6376,2.6332,2.6316,2.6302,2.6258,2.6243,2.6171,2.6173,2.6125,2.6036,2.6,2.5971,2.588,2.5881,2.5864,2.5822,2.5775,2.5765,2.5755,2.572,2.5708,2.5856,2.5856,2.5856,0,2.6457,2.6384,2.6376,2.6321,2.6291,2.6296,2.6237,2.6208,2.6148,2.6126,2.6143,2.603,2.5998,2.5909,2.5887,2.5864,2.5845,2.5869,2.5768,2.5758,2.5749,2.5715,2.5702,2.5854,2.5854,2.5854,2.5855,0,2.6347,2.6297,2.6256,2.6201,2.6167,2.611,2.609,2.6056,2.6052,2.6033,2.5958,2.592,2.5861,2.584,2.5835,2.5749,2.5759,2.5772,2.5801,2.5735,2.5703,2.569,2.5851,2.5852,2.5852,2.5853,0,0,2.6251,2.6194,2.6179,2.6153,2.6106,2.6064,2.6007,2.5953,2.5922,2.5881,2.583,2.5755,2.5767,2.5733,2.5724,2.5682,2.5609,2.57,2.5698,2.5682,2.5509,2.5497,2.5483,2.5612,2.5609,2.5607,2.5512,0,2.6166,2.6068,2.6058,2.5968,2.592,2.5924,2.5874,2.5837,2.5817,2.5771,2.5748,2.5694,2.5715,2.5695,2.5655,2.5627,2.5574,2.5634,2.556,2.5557,2.5569,2.5466,2.5454,2.5366,2.55,2.5498,2.5496,0,2.6053,2.6012,2.5918,2.5876,2.5855,2.5811,2.5759,2.5716,2.5673,2.5662,2.5625,2.5621,2.5558,2.5593,2.5504,2.5545,2.5514,2.5496,2.5492,2.5482,2.552,2.545,2.5338,2.5323,2.5477,2.5478,2.548,0,2.5989,2.591,2.5843,2.5821,2.5772,2.574,2.5717,2.5677,2.5644,2.5599,2.5577,2.5523,2.5493,2.545,2.5431,2.5458,2.5342,2.5375,2.5327,2.5327,2.53,2.5301,2.5178,2.5285,2.5286,2.5286,2.5286,0,2.5893,2.5835,2.5813,2.5772,2.5705,2.5694,2.5628,2.5606,2.5571,2.5522,2.5523,2.5477,2.5456,2.5405,2.539,2.5317,2.5304,2.529,2.5286,2.5288,2.5289,2.5265,2.5269,2.5282,2.5283,2.5284,2.5284,0,2.5809,2.5793,2.572,2.568,2.5668,2.5621,2.5584,2.5542,2.5525,2.5463,2.5448,2.5418,2.5359,2.5337,2.5264,2.5254,2.5168,2.5171,2.5183,2.5181,2.5133,2.5137,2.4987,2.4966,2.5091,2.509,2.5089,0,2.5747,2.5703,2.5659,2.5628,2.5605,2.5556,2.5523,2.551,2.5475,2.5424,2.5387,2.5329,2.5282,2.5187,2.5156,2.51,2.5099,2.5051,2.509,2.5093,2.5094,2.5096,2.509,2.5042,2.5041,2.504,2.5039,0,2.5639,2.5633,2.5588,2.554,2.5502,2.5462,2.5424,2.5398,2.5378,2.5339,2.528,2.5244,2.5171,2.5112,2.5054,2.5027,2.5028,2.5027,2.5012,2.5012,2.502,2.5012,2.516,2.503,2.5031,2.5031,2.5032,2.5032,2.5562,2.5522,2.5485,2.5434,2.5404,2.5368,2.5327,2.5305,2.5256,2.5198,2.5193,2.5128,2.5085,2.5009,2.4979,2.4926,2.4939,2.4918,2.4912,2.4907,2.4902,2.5032,2.4916,2.4916,2.4917,2.4917,2.4917,0,2.5451,2.5428,2.5381,2.5329,2.5288,2.5297,2.5255,2.5219,2.5164,2.5125,2.5079,2.501,2.4953,2.4919,2.4861,2.4825,2.4824,2.481,2.4811,2.4804,2.4895,2.4913,2.4812,2.4812,2.4812,2.4812,2.4812,2.4812,2.5388,2.532,2.531,2.5226,2.5203,2.5143,2.5117,2.5083,2.5052,2.4976,2.493,2.491,2.4871,2.4811,2.4758,2.4749,2.4726,2.471,2.4702,2.4787,2.4798,2.4808,2.4824,2.4706,2.4706,2.4614,2.4613,2.4613]}]]